sat.trackr.live / text

‹ back to catalog

GAOFEN-12 02

NORAD 48079 · 2021-026A

PAYLOAD ACTIVE UNKNOWN

§ Identity

Operator
Country
PRC
Launch date
2021-03-30
Launch site
JSC
Launch vehicle
Mass (kg)
RCS (m²)

Purposes: earth_obs

External: N2YO · Heavens-Above · Gunter

§ Orbital elements

Epoch: 2026-09-20T04:40:51.246912Z

Period
97.27 min
Inclination
98.0002°
Eccentricity
0.0003469
Mean motion
14.80357327 rev/d
Perigee alt
625.8 km
Apogee alt
630.6 km
Semi-major
7,006.3 km
B*
3.5323e-5
RAAN
261.0241°
Arg perigee
295.3639°
Mean anomaly
64.7214°
Rev number
29,581

§ Raw data

GAOFEN-12 021 48079U 21026A   26263.19503758  .00000217  00000+0  35323-4 0  99952 48079  98.0002 261.0241 0003469 295.3639  64.7214 14.80357327295813

JSON: /api/v1/satellites/48079 · /tle

For live sub-satellite position, see the globe view (requires WebGL).

§ Visibility from observer

Set your observer location to see the next 7 days of passes ≥ 10°. The values pass through the URL so the page stays shareable.

No JS? Fill the form by hand. The geolocation button needs JavaScript.